Meteo pe oră la Dzierzyslaw

Astăzi, 5 Martie, Vineri

Timp Temperatura Precipitaţii Vânt Presiune Umiditate
00:00 -2°C° 0.1 mm 4 m/s 752 mmHg 89%
01:00 -2°C° 0 mm 4 m/s 753 mmHg 86%
02:00 -3°C° 0 mm 4 m/s 753 mmHg 86%
03:00 -2°C° 0 mm 3 m/s 753 mmHg 86%
04:00 -4°C° 0 mm 3 m/s 753 mmHg 85%
05:00 -4°C° 0 mm 3 m/s 753 mmHg 85%
06:00 -4°C° 0 mm 3 m/s 754 mmHg 85%
07:00 -4°C° 0 mm 3 m/s 754 mmHg 85%
08:00 -3°C° 0 mm 4 m/s 755 mmHg 78%
09:00 -2°C° 0 mm 4 m/s 755 mmHg 70%
10:00 0°C° 0 mm 4 m/s 756 mmHg 63%
11:00 0°C° 0 mm 4 m/s 756 mmHg 58%
12:00 +1°C° 0 mm 4 m/s 756 mmHg 53%
13:00 +1°C° 0 mm 4 m/s 756 mmHg 48%
14:00 +1°C° 0.1 mm 4 m/s 757 mmHg 48%
15:00 +1°C° 0.1 mm 4 m/s 757 mmHg 48%
16:00 +1°C° 0.1 mm 4 m/s 757 mmHg 48%
17:00 0°C° 0 mm 4 m/s 758 mmHg 53%
18:00 -1°C° 0 mm 4 m/s 758 mmHg 58%
19:00 -1°C° 0 mm 3 m/s 759 mmHg 63%
20:00 -2°C° 0 mm 3 m/s 759 mmHg 66%
21:00 -2°C° 0 mm 3 m/s 760 mmHg 69%
22:00 -2°C° 0 mm 3 m/s 760 mmHg 72%
23:00 -2°C° 0 mm 3 m/s 761 mmHg 74%

Mâine, 6 Martie, Sâmbătă

Timp Temperatura Precipitaţii Vânt Presiune Umiditate
00:00 -4°C° 0 mm 3 m/s 761 mmHg 76%
01:00 -4°C° 0 mm 3 m/s 761 mmHg 78%
02:00 -4°C° 0 mm 3 m/s 761 mmHg 78%
03:00 -4°C° 0 mm 3 m/s 761 mmHg 77%
04:00 -3°C° 0 mm 2 m/s 761 mmHg 76%
05:00 -4°C° 0 mm 3 m/s 762 mmHg 75%
06:00 -4°C° 0 mm 3 m/s 762 mmHg 75%
07:00 -4°C° 0 mm 3 m/s 762 mmHg 74%
08:00 -1°C° 0 mm 3 m/s 762 mmHg 66%
09:00 0°C° 0 mm 3 m/s 763 mmHg 58%
10:00 +1°C° 0 mm 4 m/s 763 mmHg 51%
11:00 +1°C° 0 mm 4 m/s 762 mmHg 48%
12:00 +2°C° 0 mm 5 m/s 762 mmHg 45%
13:00 +2°C° 0 mm 5 m/s 762 mmHg 42%
14:00 +2°C° 0 mm 5 m/s 761 mmHg 43%
15:00 +2°C° 0 mm 5 m/s 761 mmHg 45%
16:00 +2°C° 0 mm 5 m/s 760 mmHg 47%
17:00 +1°C° 0 mm 5 m/s 760 mmHg 54%
18:00 0°C° 0 mm 5 m/s 760 mmHg 60%
19:00 -1°C° 0 mm 5 m/s 759 mmHg 67%
20:00 -1°C° 0 mm 5 m/s 759 mmHg 72%
21:00 -1°C° 0 mm 5 m/s 759 mmHg 78%
22:00 -3°C° 0 mm 6 m/s 759 mmHg 84%
23:00 -2°C° 0 mm 6 m/s 759 mmHg 85%

Poimâine, 7 Martie, Duminică

Timp Temperatura Precipitaţii Vânt Presiune Umiditate
00:00 -2°C° 0 mm 6 m/s 758 mmHg 86%
01:00 -2°C° 0 mm 7 m/s 758 mmHg 87%
02:00 -2°C° 0 mm 7 m/s 758 mmHg 84%
03:00 -2°C° 0 mm 7 m/s 757 mmHg 81%
04:00 -2°C° 0 mm 7 m/s 757 mmHg 79%
05:00 -2°C° 0 mm 7 m/s 757 mmHg 78%
06:00 -3°C° 0 mm 7 m/s 756 mmHg 78%
07:00 -3°C° 0 mm 7 m/s 756 mmHg 77%
08:00 -2°C° 0 mm 8 m/s 756 mmHg 75%
09:00 -2°C° 0 mm 8 m/s 756 mmHg 73%
10:00 -2°C° 0 mm 8 m/s 755 mmHg 71%
11:00 -1°C° 0 mm 8 m/s 755 mmHg 69%
12:00 0°C° 0 mm 8 m/s 755 mmHg 67%
13:00 0°C° 0 mm 8 m/s 755 mmHg 65%
14:00 0°C° 0 mm 8 m/s 754 mmHg 67%
15:00 -1°C° 0 mm 7 m/s 754 mmHg 69%
16:00 -1°C° 0 mm 7 m/s 753 mmHg 70%
17:00 -1°C° 0 mm 7 m/s 753 mmHg 73%
18:00 -2°C° 0 mm 6 m/s 753 mmHg 75%
19:00 -2°C° 0 mm 6 m/s 752 mmHg 78%
20:00 -3°C° 0 mm 6 m/s 752 mmHg 80%
21:00 -3°C° 0 mm 6 m/s 752 mmHg 82%
22:00 -3°C° 0 mm 6 m/s 752 mmHg 83%
23:00 -3°C° 0 mm 6 m/s 752 mmHg 87%

8 Martie, Luni

Timp Temperatura Precipitaţii Vânt Presiune Umiditate
00:00 -3°C° 0 mm 6 m/s 752 mmHg 90%
01:00 -2°C° 0 mm 6 m/s 752 mmHg 93%
02:00 -2°C° 0.2 mm 5 m/s 752 mmHg 93%
03:00 -3°C° 0.2 mm 4 m/s 751 mmHg 94%
04:00 -3°C° 0.2 mm 4 m/s 751 mmHg 94%
05:00 -4°C° 0.1 mm 3 m/s 751 mmHg 92%
06:00 -3°C° 0.1 mm 2 m/s 752 mmHg 90%
07:00 -3°C° 0.1 mm 2 m/s 752 mmHg 88%
08:00 -2°C° 0 mm 3 m/s 753 mmHg 77%
09:00 -1°C° 0 mm 3 m/s 753 mmHg 66%
10:00 0°C° 0 mm 4 m/s 754 mmHg 55%
11:00 0°C° 0 mm 4 m/s 754 mmHg 55%
12:00 0°C° 0 mm 5 m/s 754 mmHg 55%
13:00 +1°C° 0 mm 5 m/s 755 mmHg 55%
14:00 0°C° 0 mm 5 m/s 755 mmHg 56%
15:00 0°C° 0 mm 5 m/s 755 mmHg 57%
16:00 0°C° 0 mm 5 m/s 755 mmHg 58%
17:00 -1°C° 0 mm 4 m/s 755 mmHg 65%
18:00 -1°C° 0 mm 3 m/s 756 mmHg 71%
19:00 -4°C° 0 mm 3 m/s 756 mmHg 77%
20:00 -4°C° 0 mm 3 m/s 757 mmHg 78%
21:00 -3°C° 0 mm 2 m/s 757 mmHg 79%
22:00 -4°C° 0 mm 2 m/s 758 mmHg 80%
23:00 -4°C° 0 mm 2 m/s 758 mmHg 80%

9 Martie, Marţi

Timp Temperatura Precipitaţii Vânt Presiune Umiditate
00:00 -4°C° 0 mm 2 m/s 758 mmHg 80%
01:00 -2°C° 0 mm 1 m/s 758 mmHg 80%
02:00 -2°C° 0 mm 1 m/s 758 mmHg 79%
03:00 -2°C° 0 mm 1 m/s 758 mmHg 78%
04:00 -2°C° 0 mm 1 m/s 758 mmHg 77%
05:00 -2°C° 0 mm 1 m/s 758 mmHg 76%
06:00 -2°C° 0 mm 1 m/s 758 mmHg 76%
07:00 -2°C° 0 mm 1 m/s 758 mmHg 75%
08:00 -1°C° 0 mm 1 m/s 758 mmHg 69%
09:00 -1°C° 0 mm 1 m/s 758 mmHg 62%
10:00 -2°C° 0 mm 2 m/s 758 mmHg 55%
11:00 -2°C° 0 mm 2 m/s 758 mmHg 52%
12:00 -1°C° 0 mm 2 m/s 758 mmHg 48%
13:00 -1°C° 0 mm 2 m/s 758 mmHg 44%
14:00 +1°C° 0 mm 2 m/s 758 mmHg 43%
15:00 +1°C° 0 mm 2 m/s 758 mmHg 43%
16:00 +2°C° 0 mm 1 m/s 757 mmHg 43%
17:00 +1°C° 0 mm 1 m/s 757 mmHg 46%
18:00 0°C° 0 mm 1 m/s 757 mmHg 50%
19:00 -1°C° 0 mm 1 m/s 758 mmHg 53%
20:00 -1°C° 0 mm 1 m/s 758 mmHg 54%
21:00 -3°C° 0 mm 2 m/s 758 mmHg 54%
22:00 -4°C° 0 mm 2 m/s 758 mmHg 55%
23:00 -4°C° 0 mm 2 m/s 758 mmHg 55%

10 Martie, Miercuri

Timp Temperatura Precipitaţii Vânt Presiune Umiditate
00:00 -4°C° 0 mm 2 m/s 757 mmHg 56%
01:00 -4°C° 0 mm 2 m/s 757 mmHg 56%
02:00 -4°C° 0 mm 2 m/s 757 mmHg 56%
03:00 -4°C° 0 mm 2 m/s 757 mmHg 56%
04:00 -4°C° 0 mm 2 m/s 756 mmHg 57%
05:00 -4°C° 0 mm 2 m/s 756 mmHg 57%
06:00 -4°C° 0 mm 2 m/s 756 mmHg 56%
07:00 -3°C° 0 mm 2 m/s 756 mmHg 56%
08:00 -2°C° 0 mm 3 m/s 756 mmHg 53%
09:00 0°C° 0 mm 3 m/s 756 mmHg 49%
10:00 0°C° 0 mm 4 m/s 756 mmHg 46%
11:00 +1°C° 0 mm 4 m/s 756 mmHg 48%
12:00 +3°C° 0 mm 4 m/s 755 mmHg 51%
13:00 +4°C° 0 mm 4 m/s 755 mmHg 53%
14:00 +3°C° 0 mm 4 m/s 754 mmHg 60%
15:00 +3°C° 0 mm 4 m/s 754 mmHg 66%
16:00 +3°C° 0 mm 3 m/s 753 mmHg 72%
17:00 +2°C° 0 mm 3 m/s 753 mmHg 78%
18:00 0°C° 0 mm 4 m/s 752 mmHg 83%
19:00 -1°C° 0 mm 4 m/s 752 mmHg 89%
20:00 -1°C° 0 mm 4 m/s 752 mmHg 88%
21:00 -1°C° 0 mm 4 m/s 751 mmHg 86%
22:00 -1°C° 0 mm 5 m/s 751 mmHg 85%
23:00 0°C° 0 mm 5 m/s 750 mmHg 83%
Arată mai mult

Formular de consimțământ

Meteoprog și furnizorii noștri de servicii pot stoca și accesa date personale, precum cookies, identificatori de dispozitiv sau alte tehnologii similare pe dispozitivul dumneavoastră și procesa astfel de date pentru a personaliza conținutul și reclamele, dar și pentru a oferi caracteristici de social media și pentru a analiza traficul.

  • Stocarea și/sau accesarea informațiilor pe dispozitivul dumneavoastră

    Cookies, identificatori de dispozitiv sau alte informații pot fi stocate sau accesate pe dispozitiv în scopurile indicate mai sus.

  • Reclame și conținut personalizat, evaluarea reclamelor și a conținutului, informații despre audiențe și dezvoltarea produselor

    Reclamele și conținutul pot fi personalizate pe baza unui profil. Pot fi adăugate date suplimentare pentru a personaliza mai bine reclamele și conținutul. Performanța reclamelor și conținutului poate fi măsurată. Pot fi obținute informații despre utilizatorii care au văzut reclamele și conținutul. Aceste date pot fi utilizate pentru a dezvolta sau îmbunătăți experiența utilizatorilor, sistemele și software-ul.

Dând clic pe ‘Sunt de acord’, permiteți utilizarea cookie-urilor menționate, a identificatorilor de dispozitiv, balizelor web sau altor tehnologii similare. Setările pot fi modificate din browser-ul dispozitivului dumneavoastră.

În anumite scopuri, interesele legitime pot prima asupra consimțământului. Puteți citi mai multe informații în acest sens în Politica privind Confidențialitatea Datelor și Cookie.